User: anonymous   Login
Location: Sweet Grass
(48.9965°N, 111.9649°W)
Time: 21:54:18
(UTC+00:00)
Language:

RESURS DK-1 - Orbit

View from above orbital plane
View from above orbital plane
View from above satellite
View from above satellite

Ground track
Ground track

The orbit data is extracted from the following two-line orbital elements,

1 29228U 06021A   24147.91615048  .00003816  00000-0  25993-3 0  9993
2 29228  69.9342 116.3011 0002815 359.2646   0.8513 15.07145409989113
Epoch (UTC): 26 May 2024 21:59:15
Eccentricity: 0.0002815
inclination: 69.9342°
perigee height: 543 km
apogee height: 547 km
right ascension of ascending node: 116.3011°
argument of perigee: 359.2646°
revolutions per day: 15.07145409
mean anomaly at epoch: 0.8513°
orbit number at epoch: 98911

The dashed part of the orbit path shows where the satellite is in the earth's shadow,  

DLR